Regional Weather Roundup
Issued by NWS

Home | Current Version | Previous Version | Text Only | Print | Product List | Glossary Off
Versions: 1 2 3 4 5 6 7 8 9 10 11 12 13 14 15 16 17 18 19 20 21 22 23 24 25 26 27 28 29 30 31 32 33 34 35 36 37 38 39 40 41 42 43 44 45 46 47 48 49 50

000
ASUS45 KSLC 021810
RWRUT

UTAH REGIONAL WEATHER ROUNDUP
NATIONAL WEATHER SERVICE SALT LAKE CITY UT
1100 AM MST MON MAR 02 2015

UTZ001>011-023>025-021900-

NORTHERN UTAH

CITY           SKY/WX    TMP DP  RH WIND       PRES   REMARKS
BRIGHAM CITY   CLOUDY    40  26  58 NW7       29.77S
HILL AFB       CLOUDY    37  28  70 E12       29.75R WCI  29
LOGAN          MOSUNNY   36  23  59 CALM      29.77F
OGDEN          CLOUDY    40  28  62 N3        29.76R
PROVO AIRPORT  CLOUDY    36  32  87 CALM      29.78S
SALT LAKE CITY CLOUDY    38  33  82 SE3       29.76S
VERNAL         SNOW      33  32  96 NW3       29.77F VSB 1/2
WENDOVER       CLOUDY    36  28  75 S9        29.78S WCI  29
HEBER CITY     LGT SNOW  32  30  93 N3        29.75S
WEST JORDAN    CLOUDY    36  36 100 E3        29.77S

$$

UTZ012>022-026-027-021900-

SOUTHERN/CENTRAL UTAH

CITY           SKY/WX    TMP DP  RH WIND       PRES   REMARKS
BLANDING       CLOUDY    39  36  87 S5        29.91F
BRYCE CANYON   LGT SNOW  31  29  92 S10       29.78R VSB 1   WCI  22
CEDAR CITY     FLURRIES  35  30  82 S21       29.74F WCI  24
DELTA          CLOUDY    35  35 100 S7        29.73F WCI  29
HANKSVILLE     CLOUDY    36  36 100 NW6       29.79F WCI  31
MILFORD        LGT SNOW  33  32  96 SW3       29.73F FOG
MOAB/CYNLANDS  CLOUDY    46  42  86 SE9       29.72F
PRICE          SNOW      33  31  92 CALM      29.76S VSB 1/4
ST GEORGE      CLOUDY    43  37  81 N6        29.83S
KANAB            N/A     32  32 100 CALM      29.87S

$$

REGIONAL REPORTS     COLORADO/ARIZONA

CITY           SKY/WX    TMP DP  RH WIND       PRES   REMARKS
CRAIG, CO      LGT RAIN  36  33  89 E9        29.80F WCI  29
GRAND JUNCTION PTSUNNY   45  40  82 SE6       29.76F
RIFLE          LGT RAIN  36  33  89 E6        29.81F WCI  31
MONTROSE       PTSUNNY   46  31  55 E8        29.82F
CORTEZ         MOSUNNY   49  32  52 S22       29.87F
PAGE, AZ       RAIN      41  37  86 SW6       29.80R FOG
GRAND CANYON   SNOW      32  30  92 SW8       29.87R VSB 1/2 WCI  25
KINGMAN        LGT RAIN  41  36  82 SE8       29.86S
FLAGSTAFF      HVY SNOW  31  29  92 W14G24    29.87R VSB 1/4 WCI  21

$$

REGIONAL REPORTS    NEVADA/IDAHO/WYOMING

CITY           SKY/WX    TMP DP  RH WIND       PRES   REMARKS
LAS VEGAS, NV  PTSUNNY   51  39  63 S17       29.77F
ELY            LGT SNOW  30  27  88 N7        29.70F VSB 3/4 WCI  23
ELKO           PTSUNNY   36  21  54 CALM      29.74F
POCATELLO, ID  MOSUNNY   36  18  48 NE5       29.76F WCI  32
BURLEY         MOSUNNY   38  15  39 NE10      29.76F WCI  31
EVANSTON, WY   LGT SNOW  27  23  85 N5        29.75S FOG     WCI  22
ROCK SPRINGS   SNOW      28  26  92 N5        29.76F VSB 1/4 WCI  23
KEMMERER       LGT SNOW  28  23  80 NE10      29.75F WCI  19

$$


USA.gov is the U.S. government's official web portal to all federal, state and local government web resources and services.